Jacksonville, IL

7:32 PM CDT on October 18, 2019 (GMT -0500)
Jacksonville Municipal

Weather History for KIJX - August, 2019

Change the Weather History Date:

Saturday, August 3, 2019

  Actual Average (WUND) Record (WUND)
Temperature  
Mean Temperature 71 °F -  
Max Temperature 82 °F - - (-1)
Min Temperature 60 °F - - (-1)
Cooling Degree Days 6    
Growing Degree Days 21 (Base 50)    
Moisture  
Dew Point 62 °F    
Average Humidity 76    
Maximum Humidity 93    
Minimum Humidity 47    
Precipitation  
Precipitation 0.00 in - - ()
Sea Level Pressure  
Sea Level Pressure 30.06 in    
Wind  
Wind Speed 3 mph (ENE)    
Max Wind Speed 8 mph    
Max Gust Speed -    
Visibility 10 miles    
Events      
Averages and records for this station are not official NWS values.
T = Trace of Precipitation, MM = Missing Value Source: NWS Daily Summary

Daily Weather History Graph

Daily Weather History Graph

Search for Another Location

Airport or City:

Astronomy

Aug. 03, 2019 Rise Set
Actual Time 6:01 AM CDT 8:12 PM CDT
Civil Twilight 5:31 AM CDT 8:42 PM CDT
Nautical Twilight 4:54 AM CDT 9:18 PM CDT
Astronomical Twilight 4:14 AM CDT 9:58 PM CDT
Moon 8:54 AM CDT (8/3) 10:18 PM CDT (8/3)
Length of Visible Light 15h 10m
Length of Day
14h 10m
Waxing Crescent, 10% of the Moon is Illuminated
Aug 3
Waxing Crescent
Aug 7
First Quarter
Aug 15
Full
Aug 23
Last Quarter
Aug 30
New

Hourly Weather History & Observations

Time (CDT) Temp. Heat Index Dew Point Humidity Pressure Visibility Wind Dir Wind Speed Gust Speed Precip Events Conditions
12:15 AM 65.8 °F - 62.6 °F 89% 30.09 in 10.0 mi ENE 5.8 mph - N/A   Clear
12:35 AM 66.2 °F - 61.9 °F 86% 30.09 in 10.0 mi ENE 4.6 mph - N/A   Clear
12:55 AM 64.4 °F - 61.3 °F 90% 30.09 in 10.0 mi ENE 5.8 mph - N/A   Clear
1:15 AM 64.2 °F - 60.8 °F 89% 30.09 in 10.0 mi East 4.6 mph - N/A   Clear
1:35 AM 63.5 °F - 60.4 °F 90% 30.08 in 10.0 mi East 5.8 mph - N/A   Clear
1:55 AM 63.3 °F - 60.1 °F 89% 30.08 in 10.0 mi East 4.6 mph - N/A   Clear
2:15 AM 62.8 °F - 59.9 °F 90% 30.08 in 10.0 mi East 4.6 mph - N/A   Clear
2:35 AM 62.8 °F - 59.5 °F 89% 30.08 in 10.0 mi East 4.6 mph - N/A   Clear
2:55 AM 62.6 °F - 59.2 °F 89% 30.08 in 10.0 mi East 5.8 mph - N/A   Clear
3:15 AM 62.4 °F - 59.0 °F 89% 30.07 in 10.0 mi East 4.6 mph - N/A   Clear
3:35 AM 62.1 °F - 59.0 °F 90% 30.07 in 10.0 mi ENE 3.5 mph - N/A   Clear
3:55 AM 61.7 °F - 58.6 °F 90% 30.07 in 10.0 mi ENE 4.6 mph - N/A   Clear
4:15 AM 61.2 °F - 58.1 °F 90% 30.07 in 10.0 mi ENE 3.5 mph - N/A   Clear
4:35 AM 60.8 °F - 58.1 °F 91% 30.07 in 10.0 mi East 3.5 mph - N/A   Clear
4:55 AM 60.8 °F - 58.1 °F 91% 30.07 in 10.0 mi ENE 3.5 mph - N/A   Clear
5:15 AM 60.8 °F - 58.1 °F 91% 30.07 in 10.0 mi NE 4.6 mph - N/A   Clear
5:35 AM 60.8 °F - 58.1 °F 91% 30.07 in 10.0 mi ENE 5.8 mph - N/A   Clear
5:55 AM 61.3 °F - 58.1 °F 89% 30.08 in 10.0 mi NE 3.5 mph - N/A   Clear
6:15 AM 63.3 °F - 58.6 °F 85% 30.08 in 10.0 mi NE 3.5 mph - N/A   Scattered Clouds
6:35 AM 63.5 °F - 59.7 °F 87% 30.08 in 10.0 mi Calm Calm - N/A   Scattered Clouds
6:55 AM 63.9 °F - 60.1 °F 87% 30.08 in 10.0 mi Calm Calm - N/A   Scattered Clouds
7:15 AM 64.6 °F - 61.2 °F 89% 30.08 in 10.0 mi Calm Calm - N/A   Scattered Clouds
7:35 AM 65.7 °F - 61.2 °F 85% 30.08 in 10.0 mi Calm Calm - N/A   Clear
7:55 AM 66.4 °F - 61.2 °F 83% 30.09 in 10.0 mi Calm Calm - N/A   Clear
8:15 AM 66.4 °F - 61.2 °F 83% 30.09 in 10.0 mi ENE 5.8 mph - N/A   Clear
8:35 AM 67.3 °F - 62.1 °F 83% 30.09 in 10.0 mi East 4.6 mph - N/A   Clear
8:55 AM 68.0 °F - 62.4 °F 82% 30.10 in 10.0 mi East 3.5 mph - N/A   Clear
9:15 AM 68.5 °F - 62.8 °F 82% 30.10 in 10.0 mi Calm Calm - N/A   Clear
9:35 AM 69.8 °F - 63.3 °F 80% 30.10 in 10.0 mi ENE 4.6 mph - N/A   Clear
9:55 AM 70.7 °F - 64.4 °F 80% 30.10 in 10.0 mi Calm Calm - N/A   Clear
10:15 AM 71.6 °F - 64.0 °F 77% 30.09 in 10.0 mi ENE 5.8 mph - N/A   Clear
10:35 AM 73.2 °F - 65.3 °F 76% 30.10 in 10.0 mi Calm Calm - N/A   Clear
10:55 AM 74.3 °F - 65.3 °F 73% 30.10 in 10.0 mi Calm Calm - N/A   Clear
11:15 AM 77.0 °F - 66.0 °F 69% 30.10 in 10.0 mi Calm Calm - N/A   Clear
11:35 AM 78.4 °F - 66.2 °F 66% 30.09 in 10.0 mi Calm Calm - N/A   Clear
11:55 AM 79.3 °F - 66.0 °F 64% 30.09 in 10.0 mi ESE 4.6 mph - N/A   Clear
12:15 PM 79.0 °F - 65.1 °F 62% 30.09 in 10.0 mi ENE 6.9 mph - N/A   Clear
12:35 PM 79.2 °F - 64.9 °F 62% 30.09 in 10.0 mi East 8.1 mph - N/A   Clear
12:55 PM 79.2 °F - 65.5 °F 63% 30.08 in 10.0 mi Calm Calm - N/A   Clear
1:15 PM 79.7 °F - 65.5 °F 62% 30.08 in 10.0 mi Calm Calm - N/A   Clear
1:35 PM 80.6 °F 82.5 °F 65.5 °F 60% 30.08 in 10.0 mi Calm Calm - N/A   Clear
1:55 PM 80.6 °F 82.4 °F 65.1 °F 59% 30.07 in 10.0 mi Calm Calm - N/A   Clear
2:15 PM 81.5 °F 83.3 °F 64.9 °F 57% 30.07 in 10.0 mi Calm Calm - N/A   Clear
2:35 PM 81.3 °F 82.9 °F 64.4 °F 56% 30.07 in 10.0 mi Calm Calm - N/A   Clear
2:55 PM 81.5 °F 82.8 °F 63.3 °F 54% 30.07 in 10.0 mi Calm Calm - N/A   Clear
3:15 PM 81.7 °F 82.6 °F 61.9 °F 51% 30.06 in 10.0 mi Calm Calm - N/A   Clear
3:35 PM 81.7 °F 83.0 °F 63.3 °F 54% 30.05 in 10.0 mi Calm Calm - N/A   Clear
3:55 PM 81.1 °F 82.7 °F 63.9 °F 56% 30.05 in 10.0 mi Calm Calm - N/A   Clear
4:15 PM 81.5 °F 82.8 °F 63.3 °F 54% 30.04 in 10.0 mi Calm Calm - N/A   Clear
4:35 PM 80.8 °F 82.2 °F 63.7 °F 56% 30.03 in 10.0 mi Calm Calm - N/A   Clear
4:55 PM 81.3 °F 82.3 °F 62.2 °F 52% 30.03 in 10.0 mi Calm Calm - N/A   Clear
5:15 PM 82.8 °F 83.1 °F 60.6 °F 47% 30.03 in 10.0 mi Calm Calm - N/A   Clear
5:35 PM 81.3 °F 82.3 °F 62.2 °F 52% 30.03 in 10.0 mi Calm Calm - N/A   Clear
5:55 PM 80.6 °F 82.4 °F 65.1 °F 59% 30.02 in 10.0 mi Calm Calm - N/A   Clear
6:15 PM 80.6 °F 82.7 °F 65.8 °F 61% 30.02 in 10.0 mi Calm Calm - N/A   Clear
6:35 PM 80.8 °F 82.2 °F 63.7 °F 56% 30.01 in 10.0 mi Calm Calm - N/A   Clear
6:55 PM 80.2 °F 81.8 °F 63.9 °F 57% 30.02 in 10.0 mi Calm Calm - N/A   Clear
7:15 PM 79.5 °F - 66.7 °F 65% 30.02 in 10.0 mi Calm Calm - N/A   Clear
7:35 PM 77.0 °F - 66.9 °F 71% 30.02 in 10.0 mi Calm Calm - N/A   Clear
7:55 PM 75.4 °F - 64.6 °F 69% 30.02 in 10.0 mi Calm Calm - N/A   Clear
8:15 PM 73.9 °F - 64.4 °F 72% 30.02 in 10.0 mi Calm Calm - N/A   Clear
8:35 PM 72.5 °F - 64.2 °F 75% 30.03 in 10.0 mi Calm Calm - N/A   Clear
8:55 PM 70.0 °F - 63.3 °F 79% 30.03 in 10.0 mi Calm Calm - N/A   Clear
9:15 PM 69.1 °F - 63.7 °F 83% 30.03 in 10.0 mi Calm Calm - N/A   Clear
9:35 PM 67.3 °F - 62.6 °F 85% 30.04 in 10.0 mi Calm Calm - N/A   Clear
9:55 PM 67.1 °F - 61.7 °F 83% 30.04 in 10.0 mi Calm Calm - N/A   Clear
10:15 PM 65.7 °F - 61.2 °F 85% 30.05 in 10.0 mi Calm Calm - N/A   Clear
10:35 PM 64.4 °F - 61.2 °F 89% 30.04 in 10.0 mi Calm Calm - N/A   Clear
10:55 PM 64.2 °F - 60.4 °F 87% 30.05 in 10.0 mi Calm Calm - N/A   Clear
11:15 PM 62.4 °F - 60.1 °F 92% 30.05 in 10.0 mi Calm Calm - N/A   Clear
11:35 PM 62.6 °F - 60.4 °F 93% 30.05 in 10.0 mi Calm Calm - N/A   Clear
11:55 PM 62.6 °F - 59.5 °F 90% 30.05 in 10.0 mi Calm Calm - N/A   Clear